Wind_Speed
142 142 142 143 140 138 134 129 128 127 127 126 122 117 118 117 119 115 108 104 99 94 91 91 88 84 80
146 146 146 147 147 147 144 139 135 134 132 129 129 127 122 116 117 120 115 111 107 101 97 94 94 91 87
152 154 152 153 152 152 152 148 144 140 139 137 133 130 129 127 121 117 120 116 114 110 106 102 100 97 95
144 150 156 161 161 160 160 157 153 149 144 142 138 136 133 131 127 122 118 118 117 116 112 113 107 104 101
137 137 145 151 158 164 163 162 158 156 153 150 145 139 137 135 132 129 124 120 115 116 116 120 111 108 105
140 137 139 150 158 164 166 169 169 164 165 158 154 148 144 139 138 134 131 128 119 115 114 116 113 111 108
137 137 140 143 150 157 171 181 179 176 178 169 167 158 152 146 144 139 135 132 128 122 117 110 107 113 111
126 128 133 137 147 155 161 169 177 183 188 185 178 171 163 156 151 144 143 137 134 130 125 120 113 106 105
112 114 119 124 131 141 154 160 164 171 182 185 184 181 173 165 160 151 148 142 140 136 132 123 120 120 116
104 106 109 113 118 123 132 144 158 166 172 174 182 188 183 173 166 159 158 148 146 140 137 128 123 120 119
95 97 101 105 109 113 116 120 133 144 167 166 173 184 183 178 174 166 162 155 149 149 138 136 129 124 121
86 90 92 95 99 104 107 108 112 119 152 161 162 170 172 178 181 174 167 162 154 157 138 136 134 131 127
79 81 83 86 90 94 97 101 103 108 124 142 154 163 162 163 175 178 171 165 162 164 147 138 140 136 131
73 75 77 78 81 85 88 91 92 102 112 122 131 151 159 157 163 172 173 170 168 167 153 147 145 143 136
67 69 71 72 74 76 78 83 87 94 102 110 118 125 142 152 154 158 166 166 171 172 157 152 144 161 139
61 63 64 66 69 70 72 76 80 88 94 101 106 111 116 134 143 151 155 160 166 168 165 158 155 167 140
55 57 58 60 62 65 68 71 75 81 87 92 92 99 106 106 135 150 152 157 162 167 166 164 170 147 152
Wind_Direction
243 244 248 249 249 247 244 243 245 245 247 247 244 242 244 245 248 249 248 249 248 248 251 254 255 256 257
245 242 243 248 248 249 246 244 243 244 244 245 245 244 244 243 244 248 248 247 248 247 249 251 255 256 256
245 244 242 241 246 248 247 245 243 242 243 244 243 244 244 243 243 244 247 246 246 247 247 247 250 252 255
246 245 244 242 241 243 246 247 245 242 241 241 242 243 243 243 243 243 243 246 244 245 245 246 246 248 251
244 241 241 242 241 241 241 245 245 244 240 240 240 241 243 242 243 242 242 243 246 244 243 246 247 246 248
247 244 240 238 237 237 238 238 240 245 244 240 239 239 239 240 242 241 241 242 241 246 245 244 245 246 246
251 248 243 240 237 237 237 237 236 236 240 239 237 235 237 238 239 241 240 240 242 240 242 243 242 244 246
252 249 247 244 241 237 236 237 237 236 237 238 238 237 233 235 236 237 240 240 240 241 239 238 241 240 242
252 249 248 247 244 241 239 236 238 237 237 238 238 238 236 232 234 234 236 238 239 240 240 238 238 240 242
252 250 248 247 245 243 240 238 237 237 237 238 235 237 237 235 233 233 235 233 238 239 239 240 239 239 241
252 250 248 247 246 245 243 240 238 236 236 240 237 235 236 235 234 233 233 234 234 236 238 238 239 240 240
252 250 248 246 245 245 244 242 239 236 233 238 238 236 236 236 236 233 232 232 234 235 232 237 239 238 240
252 250 249 246 244 243 243 242 239 236 236 235 237 236 238 237 236 235 231 231 231 235 232 232 237 239 238
250 250 248 247 245 243 242 241 239 238 236 236 235 235 236 236 235 235 233 230 230 233 232 232 234 235 238
249 248 247 245 244 243 241 240 238 237 237 236 235 234 234 236 235 234 234 233 232 232 230 231 232 241 231
249 248 247 245 244 242 240 239 238 237 237 237 235 235 234 233 235 233 234 234 232 233 231 229 231 236 236
248 247 246 244 242 241 238 237 236 237 238 239 236 235 234 231 231 231 232 232 232 231 231 228 230 231 235
Height
10405 10408 10404 10407 10415 10434 10451 10462 10470 10479 10486 10502 10514 10524 10536 10550 10553 10564 10578 10588 10600 10613 10623 10627 10635 10643 10651
10358 10368 10377 10367 10374 10383 10403 10423 10436 10440 10454 10464 10478 10492 10504 10516 10529 10535 10550 10561 10573 10586 10597 10607 10609 10619 10627
10312 10315 10328 10334 10335 10343 10353 10370 10393 10406 10413 10429 10445 10457 10470 10482 10496 10510 10516 10533 10547 10557 10569 10579 10585 10593 10602
10249 10264 10272 10285 10297 10303 10307 10319 10338 10364 10379 10390 10405 10420 10435 10448 10467 10477 10489 10499 10514 10526 10538 10545 10559 10568 10577
10183 10202 10219 10228 10246 10255 10266 10274 10292 10305 10333 10349 10369 10389 10398 10413 10429 10444 10456 10467 10480 10493 10509 10516 10533 10542 10551
10128 10149 10169 10172 10183 10197 10211 10226 10248 10270 10264 10303 10321 10342 10362 10379 10389 10406 10422 10434 10451 10459 10476 10490 10506 10515 10525
10082 10101 10113 10123 10136 10152 10155 10166 10191 10208 10208 10247 10261 10296 10315 10335 10353 10370 10386 10401 10418 10434 10446 10460 10477 10488 10499
10032 10046 10055 10072 10083 10096 10106 10121 10137 10161 10161 10190 10210 10246 10267 10292 10309 10333 10347 10364 10381 10396 10416 10433 10446 10459 10471
9987 10000 10007 10017 10031 10045 10066 10077 10099 10115 10116 10147 10170 10189 10214 10246 10266 10292 10307 10327 10344 10363 10378 10402 10419 10431 10442
9949 9959 9966 9973 9982 9995 10011 10033 10049 10064 10081 10090 10121 10132 10162 10200 10226 10247 10264 10293 10307 10328 10348 10371 10387 10402 10415
9912 9922 9929 9937 9945 9956 9971 9990 10011 10044 10031 10040 10070 10088 10119 10150 10181 10206 10226 10253 10276 10290 10316 10335 10352 10368 10385
9882 9886 9895 9905 9913 9924 9937 9957 9977 10004 9981 10000 10032 10053 10078 10108 10134 10162 10190 10212 10236 10250 10288 10302 10318 10336 10352
9852 9858 9865 9874 9884 9894 9906 9921 9943 9959 9953 9965 9990 10011 10037 10071 10093 10113 10143 10176 10196 10210 10249 10270 10284 10299 10323
9826 9830 9838 9847 9857 9865 9880 9893 9914 9917 9922 9932 9952 9972 9998 10029 10050 10074 10102 10135 10157 10175 10210 10233 10250 10269 10290
9803 9807 9815 9824 9832 9842 9855 9867 9880 9883 9888 9901 9918 9937 9963 9984 10015 10045 10068 10101 10121 10139 10174 10195 10220 10214 10265
9782 9789 9796 9804 9811 9822 9832 9841 9851 9856 9862 9871 9890 9910 9932 9958 9988 10016 10037 10068 10087 10100 10132 10164 10181 10185 10225
9765 9771 9777 9784 9791 9798 9807 9818 9826 9832 9838 9849 9870 9889 9905 9937 9950 9971 9998 10021 10037 10054 10086 10120 10138 10174 10183